Year,Month,Day,Hour,Minute,Value (Times are PST for windspeed in km/hr)
2011,11,24,00,00,1.90
2011,11,24,00,01,3.50
2011,11,24,00,02,3.10
2011,11,24,00,03,1.40
2011,11,24,00,04,3.40
2011,11,24,00,05,3.40
2011,11,24,00,06,1.40
2011,11,24,00,07,1.10
2011,11,24,00,08,4.60
2011,11,24,00,09,3.40
2011,11,24,00,10,0.00
2011,11,24,00,11,1.60
2011,11,24,00,12,2.60
2011,11,24,00,13,4.30
2011,11,24,00,14,4.00
2011,11,24,00,15,1.60
2011,11,24,00,16,0.00
2011,11,24,00,17,0.00
2011,11,24,00,18,1.00
2011,11,24,00,19,2.80
2011,11,24,00,20,3.60
2011,11,24,00,21,3.80
2011,11,24,00,22,1.30
2011,11,24,00,23,0.30
2011,11,24,00,24,1.20
2011,11,24,00,25,1.80
2011,11,24,00,26,1.70
2011,11,24,00,27,0.00
2011,11,24,00,28,1.90
2011,11,24,00,29,0.90
2011,11,24,00,30,0.00
2011,11,24,00,31,0.00
2011,11,24,00,32,0.80
2011,11,24,00,33,1.00
2011,11,24,00,34,0.00
2011,11,24,00,35,0.90
2011,11,24,00,36,0.90
2011,11,24,00,37,1.00
2011,11,24,00,38,0.80
2011,11,24,00,39,2.40
2011,11,24,00,40,3.90
2011,11,24,00,41,3.90
2011,11,24,00,42,4.30
2011,11,24,00,43,0.60
2011,11,24,00,44,0.00
2011,11,24,00,45,0.00
2011,11,24,00,46,0.00
2011,11,24,00,47,0.00
2011,11,24,00,48,0.00
2011,11,24,00,49,1.50
2011,11,24,00,50,1.80
2011,11,24,00,51,1.20
2011,11,24,00,52,2.90
2011,11,24,00,53,0.40
2011,11,24,00,54,0.20
2011,11,24,00,55,0.30
2011,11,24,00,56,0.00
2011,11,24,00,57,0.40
2011,11,24,00,58,0.00
2011,11,24,00,59,0.00
2011,11,24,01,00,0.00
2011,11,24,01,01,0.00
2011,11,24,01,02,0.00
2011,11,24,01,03,1.20
2011,11,24,01,04,1.40
2011,11,24,01,05,2.40
2011,11,24,01,06,5.00
2011,11,24,01,07,1.40
2011,11,24,01,08,0.00
2011,11,24,01,09,0.00
2011,11,24,01,10,0.00
2011,11,24,01,11,0.00
2011,11,24,01,12,0.00
2011,11,24,01,13,0.20
2011,11,24,01,14,1.70
2011,11,24,01,15,0.20
2011,11,24,01,16,0.00
2011,11,24,01,17,0.00
2011,11,24,01,18,1.40
2011,11,24,01,19,1.80
2011,11,24,01,20,0.50
2011,11,24,01,21,0.00
2011,11,24,01,22,0.00
2011,11,24,01,23,0.60
2011,11,24,01,24,1.10
2011,11,24,01,25,0.00
2011,11,24,01,26,0.80
2011,11,24,01,27,3.50
2011,11,24,01,28,0.90
2011,11,24,01,29,0.00
2011,11,24,01,30,1.40
2011,11,24,01,31,0.00
2011,11,24,01,32,0.00
2011,11,24,01,33,1.90
2011,11,24,01,34,4.00
2011,11,24,01,35,3.90
2011,11,24,01,36,3.90
2011,11,24,01,37,1.80
2011,11,24,01,38,2.80
2011,11,24,01,39,3.60
2011,11,24,01,40,3.20
2011,11,24,01,41,2.30
2011,11,24,01,42,1.70
2011,11,24,01,43,2.30
2011,11,24,01,44,1.00
2011,11,24,01,45,0.00
2011,11,24,01,46,1.50
2011,11,24,01,47,0.10
2011,11,24,01,48,2.10
2011,11,24,01,49,1.20
2011,11,24,01,50,0.00
2011,11,24,01,51,0.00
2011,11,24,01,52,0.10
2011,11,24,01,53,1.10
2011,11,24,01,54,1.40
2011,11,24,01,55,0.00
2011,11,24,01,56,0.00
2011,11,24,01,57,0.00
2011,11,24,01,58,0.50
2011,11,24,01,59,0.30
2011,11,24,02,00,2.30
2011,11,24,02,01,1.90
2011,11,24,02,02,0.90
2011,11,24,02,03,1.40
2011,11,24,02,04,1.20
2011,11,24,02,05,1.70
2011,11,24,02,06,0.30
2011,11,24,02,07,0.60
2011,11,24,02,08,2.30
2011,11,24,02,09,0.30
2011,11,24,02,10,1.80
2011,11,24,02,11,0.50
2011,11,24,02,12,0.20
2011,11,24,02,13,0.20
2011,11,24,02,14,0.90
2011,11,24,02,15,4.10
2011,11,24,02,16,2.70
2011,11,24,02,17,1.20
2011,11,24,02,18,0.50
2011,11,24,02,19,0.40
2011,11,24,02,20,0.10
2011,11,24,02,21,1.90
2011,11,24,02,22,1.80
2011,11,24,02,23,1.20
2011,11,24,02,24,1.20
2011,11,24,02,25,3.00
2011,11,24,02,26,1.20
2011,11,24,02,27,3.40
2011,11,24,02,28,1.80
2011,11,24,02,29,1.40
2011,11,24,02,30,2.70
2011,11,24,02,31,1.00
2011,11,24,02,32,2.70
2011,11,24,02,33,4.40
2011,11,24,02,34,0.00
2011,11,24,02,35,2.50
2011,11,24,02,36,1.00
2011,11,24,02,37,4.20
2011,11,24,02,38,4.20
2011,11,24,02,39,0.30
2011,11,24,02,40,0.90
2011,11,24,02,41,2.50
2011,11,24,02,42,0.20
2011,11,24,02,43,1.40
2011,11,24,02,44,2.30
2011,11,24,02,45,2.00
2011,11,24,02,46,1.10
2011,11,24,02,47,3.30
2011,11,24,02,48,1.40
2011,11,24,02,49,0.00
2011,11,24,02,50,0.50
2011,11,24,02,51,2.60
2011,11,24,02,52,4.20
2011,11,24,02,53,1.70
2011,11,24,02,54,1.10
2011,11,24,02,55,0.60
2011,11,24,02,56,0.60
2011,11,24,02,57,0.30
2011,11,24,02,58,0.20
2011,11,24,02,59,2.20
2011,11,24,03,00,3.40
2011,11,24,03,01,1.80
2011,11,24,03,02,2.30
2011,11,24,03,03,3.90
2011,11,24,03,06,1.90
2011,11,24,03,07,2.20
2011,11,24,03,08,2.00
2011,11,24,03,09,1.50
2011,11,24,03,10,1.10
2011,11,24,03,11,0.00
2011,11,24,03,12,1.40
2011,11,24,03,13,0.00
2011,11,24,03,14,2.50
2011,11,24,03,15,1.90
2011,11,24,03,16,0.00
2011,11,24,03,17,3.40
2011,11,24,03,18,0.10
2011,11,24,03,19,2.00
2011,11,24,03,20,0.10
2011,11,24,03,21,2.20
2011,11,24,03,22,2.10
2011,11,24,03,23,0.30
2011,11,24,03,24,0.00
2011,11,24,03,25,1.50
2011,11,24,03,26,2.50
2011,11,24,03,27,1.00
2011,11,24,03,28,0.20
2011,11,24,03,29,0.20
2011,11,24,03,30,0.20
2011,11,24,03,31,2.30
2011,11,24,03,32,0.20
2011,11,24,03,33,1.20
2011,11,24,03,34,1.90
2011,11,24,03,35,4.10
2011,11,24,03,36,2.90
2011,11,24,03,37,4.60
2011,11,24,03,38,1.70
2011,11,24,03,39,0.30
2011,11,24,03,40,0.80
2011,11,24,03,41,4.50
2011,11,24,03,42,2.90
2011,11,24,03,43,2.60
2011,11,24,03,44,2.50
2011,11,24,03,45,1.00
2011,11,24,03,46,0.50
2011,11,24,03,47,4.90
2011,11,24,03,48,5.10
2011,11,24,03,49,1.80
2011,11,24,03,50,4.70
2011,11,24,03,51,4.90
2011,11,24,03,52,2.60
2011,11,24,03,53,4.70
2011,11,24,03,54,5.70
2011,11,24,03,55,5.20
2011,11,24,03,56,5.00
2011,11,24,03,57,2.70
2011,11,24,03,58,1.90
2011,11,24,03,59,2.50
2011,11,24,04,00,3.90
2011,11,24,04,01,1.80
2011,11,24,04,02,5.80
2011,11,24,04,03,4.80
2011,11,24,04,04,4.50
2011,11,24,04,05,3.20
2011,11,24,04,06,1.80
2011,11,24,04,07,2.20
2011,11,24,04,08,1.90
2011,11,24,04,09,4.00
2011,11,24,04,10,2.30
2011,11,24,04,11,0.60
2011,11,24,04,12,1.10
2011,11,24,04,13,4.60
2011,11,24,04,14,2.60
2011,11,24,04,15,0.30
2011,11,24,04,16,1.10
2011,11,24,04,17,2.00
2011,11,24,04,18,1.90
2011,11,24,04,19,1.70
2011,11,24,04,20,0.80
2011,11,24,04,21,0.50
2011,11,24,04,22,0.60
2011,11,24,04,23,1.90
2011,11,24,04,24,2.30
2011,11,24,04,25,1.50
2011,11,24,04,26,2.90
2011,11,24,04,27,2.10
2011,11,24,04,28,0.40
2011,11,24,04,29,5.00
2011,11,24,04,30,2.60
2011,11,24,04,31,1.30
2011,11,24,04,32,0.90
2011,11,24,04,33,2.20
2011,11,24,04,34,0.20
2011,11,24,04,35,1.70
2011,11,24,04,36,1.10
2011,11,24,04,37,0.20
2011,11,24,04,38,2.30
2011,11,24,04,39,2.50
2011,11,24,04,40,1.10
2011,11,24,04,41,0.20
2011,11,24,04,42,1.20
2011,11,24,04,43,1.40
2011,11,24,04,44,0.40
2011,11,24,04,45,0.90
2011,11,24,04,46,2.50
2011,11,24,04,47,3.50
2011,11,24,04,48,4.00
2011,11,24,04,49,3.30
2011,11,24,04,50,2.10
2011,11,24,04,51,2.10
2011,11,24,04,52,3.10
2011,11,24,04,53,1.80
2011,11,24,04,54,0.60
2011,11,24,04,55,1.80
2011,11,24,04,56,1.00
2011,11,24,04,57,0.00
2011,11,24,04,58,0.50
2011,11,24,04,59,1.60
2011,11,24,05,00,0.60
2011,11,24,05,01,1.00
2011,11,24,05,02,2.30
2011,11,24,05,03,0.60
2011,11,24,05,04,0.00
2011,11,24,05,05,3.60
2011,11,24,05,06,2.90
2011,11,24,05,07,0.90
2011,11,24,05,08,1.40
2011,11,24,05,09,1.90
2011,11,24,05,10,1.00
2011,11,24,05,11,1.00
2011,11,24,05,12,1.20
2011,11,24,05,13,0.00
2011,11,24,05,14,0.00
2011,11,24,05,15,1.00
2011,11,24,05,16,0.80
2011,11,24,05,17,0.10
2011,11,24,05,18,3.00
2011,11,24,05,19,1.10
2011,11,24,05,20,0.00
2011,11,24,05,21,1.40
2011,11,24,05,22,0.00
2011,11,24,05,23,1.30
2011,11,24,05,24,4.30
2011,11,24,05,25,3.60
2011,11,24,05,26,2.60
2011,11,24,05,27,0.30
2011,11,24,05,28,1.20
2011,11,24,05,29,0.10
2011,11,24,05,30,0.00
2011,11,24,05,31,0.40
2011,11,24,05,32,1.00
2011,11,24,05,33,1.70
2011,11,24,05,34,0.00
2011,11,24,05,35,0.60
2011,11,24,05,36,0.90
2011,11,24,05,37,2.50
2011,11,24,05,38,2.20
2011,11,24,05,39,3.10
2011,11,24,05,40,1.40
2011,11,24,05,41,3.90
2011,11,24,05,42,2.50
2011,11,24,05,43,0.80
2011,11,24,05,44,3.80
2011,11,24,05,45,0.70
2011,11,24,05,46,1.80
2011,11,24,05,47,3.70
2011,11,24,05,48,4.50
2011,11,24,05,49,3.80
2011,11,24,05,50,0.20
2011,11,24,05,51,2.50
2011,11,24,05,52,3.80
2011,11,24,05,53,2.30
2011,11,24,05,54,3.60
2011,11,24,05,55,6.00
2011,11,24,05,56,4.90
2011,11,24,05,57,7.60
2011,11,24,05,58,3.40
2011,11,24,05,59,4.50
2011,11,24,06,00,1.60
2011,11,24,06,01,4.40
2011,11,24,06,02,5.50
2011,11,24,06,03,4.40
2011,11,24,06,04,3.30
2011,11,24,06,05,6.90
2011,11,24,06,06,3.50
2011,11,24,06,07,1.70
2011,11,24,06,08,4.40
2011,11,24,06,09,1.10
2011,11,24,06,10,1.40
2011,11,24,06,11,0.90
2011,11,24,06,12,2.40
2011,11,24,06,13,1.60
2011,11,24,06,14,3.10
2011,11,24,06,15,7.10
2011,11,24,06,16,3.70
2011,11,24,06,17,4.80
2011,11,24,06,18,5.00
2011,11,24,06,19,0.50
2011,11,24,06,20,4.40
2011,11,24,06,21,6.70
2011,11,24,06,22,5.20
2011,11,24,06,23,1.80
2011,11,24,06,24,2.30
2011,11,24,06,25,3.50
2011,11,24,06,26,4.80
2011,11,24,06,27,5.70
2011,11,24,06,28,1.50
2011,11,24,06,29,6.80
2011,11,24,06,30,2.00
2011,11,24,06,31,3.40
2011,11,24,06,32,5.50
2011,11,24,06,33,2.10
2011,11,24,06,34,6.30
2011,11,24,06,35,2.10
2011,11,24,06,36,0.00
2011,11,24,06,37,2.40
2011,11,24,06,38,3.40
2011,11,24,06,39,2.70
2011,11,24,06,40,7.60
2011,11,24,06,41,3.00
2011,11,24,06,42,6.50
2011,11,24,06,43,4.70
2011,11,24,06,44,4.80
2011,11,24,06,45,4.20
2011,11,24,06,46,4.40
2011,11,24,06,47,3.60
2011,11,24,06,48,4.80
2011,11,24,06,49,1.20
2011,11,24,06,50,2.30
2011,11,24,06,51,7.60
2011,11,24,06,52,4.30
2011,11,24,06,53,1.90
2011,11,24,06,54,1.00
2011,11,24,06,55,2.80
2011,11,24,06,56,4.30
2011,11,24,06,57,3.60
2011,11,24,06,58,1.20
2011,11,24,06,59,2.40
2011,11,24,07,00,4.50
2011,11,24,07,01,4.70
2011,11,24,07,02,0.40
2011,11,24,07,03,3.80
2011,11,24,07,04,5.50
2011,11,24,07,05,5.90
2011,11,24,07,06,6.30
2011,11,24,07,07,4.30
2011,11,24,07,08,1.40
2011,11,24,07,09,4.20
2011,11,24,07,10,5.10
2011,11,24,07,11,6.70
2011,11,24,07,12,8.90
2011,11,24,07,13,6.50
2011,11,24,07,14,6.20
2011,11,24,07,15,5.50
2011,11,24,07,16,8.50
2011,11,24,07,17,7.70
2011,11,24,07,18,1.60
2011,11,24,07,19,4.70
2011,11,24,07,20,3.90
2011,11,24,07,21,2.50
2011,11,24,07,22,6.40
2011,11,24,07,23,9.70
2011,11,24,07,24,2.70
2011,11,24,07,25,5.90
2011,11,24,07,26,0.80
2011,11,24,07,27,5.40
2011,11,24,07,28,3.60
2011,11,24,07,29,4.90
2011,11,24,07,30,5.30
2011,11,24,07,31,2.80
2011,11,24,07,32,5.20
2011,11,24,07,33,4.70
2011,11,24,07,34,6.70
2011,11,24,07,35,3.50
2011,11,24,07,36,1.60
2011,11,24,07,37,5.80
2011,11,24,07,38,5.10
2011,11,24,07,39,3.80
2011,11,24,07,40,3.90
2011,11,24,07,41,6.50
2011,11,24,07,42,5.00
2011,11,24,07,43,1.60
2011,11,24,07,44,3.80
2011,11,24,07,45,4.60
2011,11,24,07,46,3.00
2011,11,24,07,47,5.30
2011,11,24,07,48,8.70
2011,11,24,07,49,3.10
2011,11,24,07,50,3.10
2011,11,24,07,51,3.40
2011,11,24,07,52,7.50
2011,11,24,07,53,2.90
2011,11,24,07,54,5.10
2011,11,24,07,55,3.20
2011,11,24,07,56,2.90
2011,11,24,07,57,5.10
2011,11,24,07,58,0.60
2011,11,24,07,59,5.10
2011,11,24,08,00,9.20
2011,11,24,08,01,7.30
2011,11,24,08,02,3.80
2011,11,24,08,03,2.10
2011,11,24,08,04,5.90
2011,11,24,08,05,6.80
2011,11,24,08,06,3.40
2011,11,24,08,07,7.30
2011,11,24,08,08,3.00
2011,11,24,08,09,1.20
2011,11,24,08,10,2.60
2011,11,24,08,11,5.90
2011,11,24,08,12,9.60
2011,11,24,08,13,4.70
2011,11,24,08,14,3.20
2011,11,24,08,15,3.30
2011,11,24,08,16,5.60
2011,11,24,08,17,5.70
2011,11,24,08,18,2.30
2011,11,24,08,19,2.20
2011,11,24,08,20,2.40
2011,11,24,08,21,2.10
2011,11,24,08,22,0.80
2011,11,24,08,23,4.20
2011,11,24,08,24,2.70
2011,11,24,08,25,1.60
2011,11,24,08,26,4.70
2011,11,24,08,27,3.90
2011,11,24,08,28,7.60
2011,11,24,08,29,4.50
2011,11,24,08,30,1.60
2011,11,24,08,31,6.80
2011,11,24,08,32,2.60
2011,11,24,08,33,4.00
2011,11,24,08,34,9.30
2011,11,24,08,35,2.40
2011,11,24,08,36,3.90
2011,11,24,08,37,6.00
2011,11,24,08,38,5.30
2011,11,24,08,39,7.90
2011,11,24,08,40,7.30
2011,11,24,08,41,10.40
2011,11,24,08,42,10.20
2011,11,24,08,43,5.30
2011,11,24,08,44,4.20
2011,11,24,08,45,3.10
2011,11,24,08,46,6.60
2011,11,24,08,47,9.70
2011,11,24,08,48,3.10
2011,11,24,08,49,3.00
2011,11,24,08,50,3.50
2011,11,24,08,51,10.10
2011,11,24,08,52,4.60
2011,11,24,08,53,4.60
2011,11,24,08,54,6.40
2011,11,24,08,55,4.10
2011,11,24,08,56,6.00
2011,11,24,08,57,0.70
2011,11,24,08,58,2.00
2011,11,24,08,59,4.10
2011,11,24,09,00,0.80
2011,11,24,09,01,5.70
2011,11,24,09,02,3.10
2011,11,24,09,03,6.10
2011,11,24,09,04,3.00
2011,11,24,09,05,1.90
2011,11,24,09,06,0.60
2011,11,24,09,07,3.40
2011,11,24,09,08,2.80
2011,11,24,09,09,7.10
2011,11,24,09,10,6.80
2011,11,24,09,11,4.60
2011,11,24,09,12,3.40
2011,11,24,09,13,5.10
2011,11,24,09,14,3.70
2011,11,24,09,15,4.70
2011,11,24,09,16,2.30
2011,11,24,09,17,4.50
2011,11,24,09,18,1.80
2011,11,24,09,19,0.70
2011,11,24,09,20,3.70
2011,11,24,09,21,4.70
2011,11,24,09,22,0.10
2011,11,24,09,23,0.10
2011,11,24,09,24,0.90
2011,11,24,09,25,3.10
2011,11,24,09,26,3.40
2011,11,24,09,27,1.90
2011,11,24,09,28,1.40
2011,11,24,09,29,1.60
2011,11,24,09,30,2.50
2011,11,24,09,31,3.00
2011,11,24,09,32,7.20
2011,11,24,09,33,4.50
2011,11,24,09,34,2.60
2011,11,24,09,35,4.30
2011,11,24,09,36,3.80
2011,11,24,09,37,6.70
2011,11,24,09,38,8.50
2011,11,24,09,39,5.00
2011,11,24,09,40,1.90
2011,11,24,09,41,6.00
2011,11,24,09,42,5.20
2011,11,24,09,43,8.20
2011,11,24,09,44,5.50
2011,11,24,09,45,5.90
2011,11,24,09,46,4.60
2011,11,24,09,47,9.30
2011,11,24,09,48,3.90
2011,11,24,09,49,5.40
2011,11,24,09,50,3.30
2011,11,24,09,51,2.30
2011,11,24,09,52,7.60
2011,11,24,09,53,8.70
2011,11,24,09,54,4.50
2011,11,24,09,55,4.30
2011,11,24,09,56,7.90
2011,11,24,09,57,9.30
2011,11,24,09,58,5.60
2011,11,24,09,59,2.20
2011,11,24,10,00,1.10
2011,11,24,10,01,13.60
2011,11,24,10,02,8.10
2011,11,24,10,03,7.70
2011,11,24,10,04,8.60
2011,11,24,10,05,5.30
2011,11,24,10,06,6.50
2011,11,24,10,07,6.10
2011,11,24,10,08,6.00
2011,11,24,10,09,7.30
2011,11,24,10,10,6.00
2011,11,24,10,11,1.90
2011,11,24,10,12,6.30
2011,11,24,10,13,1.90
2011,11,24,10,14,7.60
2011,11,24,10,15,15.20
2011,11,24,10,16,6.80
2011,11,24,10,17,8.20
2011,11,24,10,18,5.00
2011,11,24,10,19,7.20
2011,11,24,10,20,4.40
2011,11,24,10,21,2.70
2011,11,24,10,22,9.70
2011,11,24,10,23,3.80
2011,11,24,10,24,2.50
2011,11,24,10,25,6.10
2011,11,24,10,26,10.30
2011,11,24,10,27,4.70
2011,11,24,10,28,3.90
2011,11,24,10,29,3.40
2011,11,24,10,30,4.90
2011,11,24,10,31,6.40
2011,11,24,10,32,13.20
2011,11,24,10,33,10.30
2011,11,24,10,34,7.30
2011,11,24,10,35,10.00
2011,11,24,10,36,4.70
2011,11,24,10,37,8.50
2011,11,24,10,38,6.00
2011,11,24,10,39,5.20
2011,11,24,10,40,4.70
2011,11,24,10,41,8.60
2011,11,24,10,42,5.60
2011,11,24,10,43,7.80
2011,11,24,10,44,7.10
2011,11,24,10,45,6.00
2011,11,24,10,46,8.70
2011,11,24,10,47,11.90
2011,11,24,10,48,6.80
2011,11,24,10,49,6.80
2011,11,24,10,50,12.20
2011,11,24,10,51,4.30
2011,11,24,10,52,4.70
2011,11,24,10,53,6.00
2011,11,24,10,54,6.40
2011,11,24,10,55,7.70
2011,11,24,10,56,9.50
2011,11,24,10,57,13.30
2011,11,24,10,58,10.30
2011,11,24,10,59,9.80
2011,11,24,11,00,9.80
2011,11,24,11,01,9.30
2011,11,24,11,02,11.00
2011,11,24,11,03,5.90
2011,11,24,11,04,9.60
2011,11,24,11,05,3.80
2011,11,24,11,06,5.00
2011,11,24,11,07,14.00
2011,11,24,11,08,5.80
2011,11,24,11,09,10.50
2011,11,24,11,10,4.90
2011,11,24,11,11,4.20
2011,11,24,11,12,11.40
2011,11,24,11,13,5.60
2011,11,24,11,14,4.80
2011,11,24,11,15,4.00
2011,11,24,11,16,6.00
2011,11,24,11,17,11.30
2011,11,24,11,18,10.80
2011,11,24,11,19,4.70
2011,11,24,11,20,11.30
2011,11,24,11,21,4.80
2011,11,24,11,22,5.20
2011,11,24,11,23,4.10
2011,11,24,11,24,11.50
2011,11,24,11,25,11.50
2011,11,24,11,26,8.10
2011,11,24,11,27,8.40
2011,11,24,11,28,9.00
2011,11,24,11,29,8.00
2011,11,24,11,30,9.20
2011,11,24,11,31,9.90
2011,11,24,11,32,11.40
2011,11,24,11,33,5.30
2011,11,24,11,34,6.10
2011,11,24,11,35,5.10
2011,11,24,11,36,10.70
2011,11,24,11,37,16.70
2011,11,24,11,38,8.80
2011,11,24,11,39,14.40
2011,11,24,11,40,8.40
2011,11,24,11,41,1.30
2011,11,24,11,42,9.60
2011,11,24,11,43,7.30
2011,11,24,11,44,12.90
2011,11,24,11,45,5.60
2011,11,24,11,46,11.50
2011,11,24,11,47,12.20
2011,11,24,11,48,8.90
2011,11,24,11,49,6.30
2011,11,24,11,50,8.20
2011,11,24,11,51,10.30
2011,11,24,11,52,5.80
2011,11,24,11,53,4.10
2011,11,24,11,54,6.10
2011,11,24,11,55,12.20
2011,11,24,11,56,7.00
2011,11,24,11,57,7.50
2011,11,24,11,58,6.10
2011,11,24,11,59,3.10
2011,11,24,12,00,9.50
2011,11,24,12,01,4.90
2011,11,24,12,02,9.20
2011,11,24,12,03,9.20
2011,11,24,12,04,8.90
2011,11,24,12,05,7.80
2011,11,24,12,06,6.40
2011,11,24,12,07,13.50
2011,11,24,12,08,5.00
2011,11,24,12,09,7.00
2011,11,24,12,10,5.80
2011,11,24,12,11,10.90
2011,11,24,12,12,6.20
2011,11,24,12,13,6.20
2011,11,24,12,14,9.60
2011,11,24,12,15,14.20
2011,11,24,12,16,11.40
2011,11,24,12,17,6.70
2011,11,24,12,18,11.30
2011,11,24,12,19,7.20
2011,11,24,12,20,11.20
2011,11,24,12,21,12.50
2011,11,24,12,22,7.20
2011,11,24,12,23,7.50
2011,11,24,12,24,4.90
2011,11,24,12,25,10.00
2011,11,24,12,26,10.30
2011,11,24,12,27,5.70
2011,11,24,12,28,4.10
2011,11,24,12,29,8.50
2011,11,24,12,30,10.30
2011,11,24,12,31,4.50
2011,11,24,12,32,7.20
2011,11,24,12,33,15.10
2011,11,24,12,34,11.90
2011,11,24,12,35,7.50
2011,11,24,12,36,6.80
2011,11,24,12,37,14.60
2011,11,24,12,38,12.10
2011,11,24,12,39,13.30
2011,11,24,12,40,11.20
2011,11,24,12,41,8.50
2011,11,24,12,42,9.30
2011,11,24,12,43,11.90
2011,11,24,12,44,9.20
2011,11,24,12,45,11.80
2011,11,24,12,46,12.30
2011,11,24,12,47,19.40
2011,11,24,12,48,10.40
2011,11,24,12,49,6.30
2011,11,24,12,50,5.60
2011,11,24,12,51,12.50
2011,11,24,12,52,12.60
2011,11,24,12,53,13.60
2011,11,24,12,54,11.90
2011,11,24,12,55,5.90
2011,11,24,12,56,7.50
2011,11,24,12,57,11.80
2011,11,24,12,58,10.60
2011,11,24,12,59,6.30
2011,11,24,13,00,9.90
2011,11,24,13,01,8.60
2011,11,24,13,02,7.20
2011,11,24,13,03,8.80
2011,11,24,13,04,12.90
2011,11,24,13,05,11.70
2011,11,24,13,06,8.50
2011,11,24,13,07,9.90
2011,11,24,13,08,12.00
2011,11,24,13,09,5.20
2011,11,24,13,10,5.10
2011,11,24,13,11,7.10
2011,11,24,13,12,5.30
2011,11,24,13,13,9.00
2011,11,24,13,14,8.90
2011,11,24,13,15,5.80
2011,11,24,13,16,10.50
2011,11,24,13,17,6.50
2011,11,24,13,18,6.60
2011,11,24,13,19,7.90
2011,11,24,13,20,6.00
2011,11,24,13,21,12.10
2011,11,24,13,22,4.90
2011,11,24,13,23,6.40
2011,11,24,13,24,10.10
2011,11,24,13,25,10.50
2011,11,24,13,26,8.00
2011,11,24,13,27,5.50
2011,11,24,13,28,12.60
2011,11,24,13,29,10.70
2011,11,24,13,30,14.20
2011,11,24,13,31,7.00
2011,11,24,13,32,5.10
2011,11,24,13,33,8.70
2011,11,24,13,34,5.80
2011,11,24,13,35,5.40
2011,11,24,13,36,4.10
2011,11,24,13,37,4.80
2011,11,24,13,38,5.10
2011,11,24,13,39,4.40
2011,11,24,13,40,10.50
2011,11,24,13,41,4.80
2011,11,24,13,42,9.90
2011,11,24,13,43,9.70
2011,11,24,13,44,8.40
2011,11,24,13,45,12.40
2011,11,24,13,46,11.90
2011,11,24,13,47,8.40
2011,11,24,13,48,5.40
2011,11,24,13,49,9.60
2011,11,24,13,50,4.20
2011,11,24,13,51,18.00
2011,11,24,13,52,9.70
2011,11,24,13,53,6.90
2011,11,24,13,54,12.00
2011,11,24,13,55,13.10
2011,11,24,13,56,7.50
2011,11,24,13,57,11.30
2011,11,24,13,58,4.80
2011,11,24,13,59,9.10
2011,11,24,14,00,8.70
2011,11,24,14,01,4.70
2011,11,24,14,02,1.80
2011,11,24,14,03,5.00
2011,11,24,14,04,7.90
2011,11,24,14,05,8.00
2011,11,24,14,06,5.90
2011,11,24,14,07,2.40
2011,11,24,14,08,6.00
2011,11,24,14,09,6.90
2011,11,24,14,10,2.60
2011,11,24,14,11,3.10
2011,11,24,14,12,1.20
2011,11,24,14,13,1.40
2011,11,24,14,14,4.70
2011,11,24,14,15,6.80
2011,11,24,14,16,2.50
2011,11,24,14,17,8.20
2011,11,24,14,18,5.70
2011,11,24,14,19,3.30
2011,11,24,14,20,3.40
2011,11,24,14,21,0.60
2011,11,24,14,22,7.60
2011,11,24,14,23,2.20
2011,11,24,14,24,0.60
2011,11,24,14,25,7.20
2011,11,24,14,26,2.70
2011,11,24,14,27,3.70
2011,11,24,14,28,7.80
2011,11,24,14,29,6.30
2011,11,24,14,30,8.80
2011,11,24,14,31,2.00
2011,11,24,14,32,6.70
2011,11,24,14,33,4.10
2011,11,24,14,34,2.70
2011,11,24,14,35,3.00
2011,11,24,14,36,3.90
2011,11,24,14,37,5.10
2011,11,24,14,38,2.30
2011,11,24,14,39,7.00
2011,11,24,14,40,6.00
2011,11,24,14,41,2.70
2011,11,24,14,42,4.30
2011,11,24,14,43,5.90
2011,11,24,14,44,6.20
2011,11,24,14,45,7.80
2011,11,24,14,46,4.30
2011,11,24,14,47,5.90
2011,11,24,14,48,5.60
2011,11,24,14,49,2.70
2011,11,24,14,50,5.50
2011,11,24,14,51,2.80
2011,11,24,14,52,5.60
2011,11,24,14,53,1.50
2011,11,24,14,54,6.90
2011,11,24,14,55,4.00
2011,11,24,14,56,4.10
2011,11,24,14,57,6.40
2011,11,24,14,58,3.90
2011,11,24,14,59,11.80
2011,11,24,15,00,4.70
2011,11,24,15,01,9.60
2011,11,24,15,02,7.20
2011,11,24,15,03,7.40
2011,11,24,15,04,9.10
2011,11,24,15,05,7.50
2011,11,24,15,06,7.90
2011,11,24,15,07,2.40
2011,11,24,15,08,6.80
2011,11,24,15,09,5.00
2011,11,24,15,10,5.90
2011,11,24,15,11,5.80
2011,11,24,15,12,5.70
2011,11,24,15,13,7.60
2011,11,24,15,14,5.80
2011,11,24,15,15,4.10
2011,11,24,15,16,8.60
2011,11,24,15,17,7.90
2011,11,24,15,18,7.30
2011,11,24,15,19,3.90
2011,11,24,15,20,9.30
2011,11,24,15,21,5.60
2011,11,24,15,22,5.10
2011,11,24,15,23,3.90
2011,11,24,15,24,4.80
2011,11,24,15,25,2.90
2011,11,24,15,26,7.20
2011,11,24,15,27,6.70
2011,11,24,15,28,4.30
2011,11,24,15,29,3.50
2011,11,24,15,30,13.30
2011,11,24,15,31,7.50
2011,11,24,15,32,3.20
2011,11,24,15,33,5.60
2011,11,24,15,34,6.70
2011,11,24,15,35,7.20
2011,11,24,15,36,8.60
2011,11,24,15,37,10.80
2011,11,24,15,38,6.00
2011,11,24,15,39,7.00
2011,11,24,15,40,4.40
2011,11,24,15,41,2.80
2011,11,24,15,42,8.30
2011,11,24,15,43,5.10
2011,11,24,15,44,11.00
2011,11,24,15,45,5.30
2011,11,24,15,46,6.70
2011,11,24,15,47,5.00
2011,11,24,15,48,8.10
2011,11,24,15,49,3.70
2011,11,24,15,50,8.70
2011,11,24,15,51,7.40
2011,11,24,15,52,2.70
2011,11,24,15,53,4.90
2011,11,24,15,54,3.50
2011,11,24,15,55,4.10
2011,11,24,15,56,5.70
2011,11,24,15,57,0.90
2011,11,24,15,58,4.30
2011,11,24,15,59,3.10
2011,11,24,16,00,3.10
2011,11,24,16,01,10.30
2011,11,24,16,02,5.10
2011,11,24,16,03,6.60
2011,11,24,16,04,5.60
2011,11,24,16,05,4.70
2011,11,24,16,06,6.50
2011,11,24,16,07,5.20
2011,11,24,16,08,7.30
2011,11,24,16,09,5.90
2011,11,24,16,10,6.40
2011,11,24,16,11,7.60
2011,11,24,16,12,6.10
2011,11,24,16,13,4.40
2011,11,24,16,14,3.70
2011,11,24,16,15,5.50
2011,11,24,16,16,5.60
2011,11,24,16,17,3.80
2011,11,24,16,18,6.90
2011,11,24,16,19,2.70
2011,11,24,16,20,3.90
2011,11,24,16,21,4.50
2011,11,24,16,22,3.50
2011,11,24,16,23,3.70
2011,11,24,16,24,3.90
2011,11,24,16,25,5.10
2011,11,24,16,26,4.80
2011,11,24,16,27,6.30
2011,11,24,16,28,5.10
2011,11,24,16,29,5.30
2011,11,24,16,30,7.60
2011,11,24,16,31,1.90
2011,11,24,16,32,9.20
2011,11,24,16,33,6.30
2011,11,24,16,34,4.00
2011,11,24,16,35,8.20
2011,11,24,16,36,4.90
2011,11,24,16,37,4.30
2011,11,24,16,38,2.00
2011,11,24,16,39,0.80
2011,11,24,16,40,3.90
2011,11,24,16,41,1.60
2011,11,24,16,42,3.50
2011,11,24,16,43,2.40
2011,11,24,16,44,5.80
2011,11,24,16,45,3.00
2011,11,24,16,46,4.00
2011,11,24,16,47,8.00
2011,11,24,16,48,10.50
2011,11,24,16,49,11.50
2011,11,24,16,50,9.40
2011,11,24,16,51,6.40
2011,11,24,16,52,8.00
2011,11,24,16,53,6.80
2011,11,24,16,54,9.80
2011,11,24,16,55,5.00
2011,11,24,16,56,6.30
2011,11,24,16,57,14.10
2011,11,24,16,58,10.30
2011,11,24,16,59,15.90
2011,11,24,17,00,10.50
2011,11,24,17,01,19.90
2011,11,24,17,02,14.50
2011,11,24,17,03,11.10
2011,11,24,17,04,16.30
2011,11,24,17,05,12.80
2011,11,24,17,06,6.60
2011,11,24,17,07,6.30
2011,11,24,17,08,3.50
2011,11,24,17,09,9.00
2011,11,24,17,10,11.70
2011,11,24,17,11,16.30
2011,11,24,17,12,18.40
2011,11,24,17,13,32.70
2011,11,24,17,14,10.40
2011,11,24,17,15,17.90
2011,11,24,17,16,13.30
2011,11,24,17,17,17.50
2011,11,24,17,18,8.10
2011,11,24,17,19,8.70
2011,11,24,17,20,9.30
2011,11,24,17,21,10.30
2011,11,24,17,22,12.20
2011,11,24,17,23,13.00
2011,11,24,17,24,13.30
2011,11,24,17,25,15.40
2011,11,24,17,26,11.70
2011,11,24,17,27,12.30
2011,11,24,17,28,16.40
2011,11,24,17,29,14.30
2011,11,24,17,30,10.10
2011,11,24,17,31,9.70
2011,11,24,17,32,10.30
2011,11,24,17,33,15.30
2011,11,24,17,34,15.90
2011,11,24,17,35,14.50
2011,11,24,17,36,12.10
2011,11,24,17,37,16.90
2011,11,24,17,38,9.30
2011,11,24,17,39,14.60
2011,11,24,17,40,9.70
2011,11,24,17,41,11.50
2011,11,24,17,42,10.90
2011,11,24,17,43,18.60
2011,11,24,17,44,20.00
2011,11,24,17,45,20.40
2011,11,24,17,46,22.30
2011,11,24,17,47,14.70
2011,11,24,17,48,12.40
2011,11,24,17,49,11.00
2011,11,24,17,50,18.30
2011,11,24,17,51,8.50
2011,11,24,17,52,18.80
2011,11,24,17,53,16.10
2011,11,24,17,54,10.60
2011,11,24,17,55,11.80
2011,11,24,17,56,17.90
2011,11,24,17,57,23.40
2011,11,24,17,58,22.00
2011,11,24,17,59,25.00
2011,11,24,18,00,12.90
2011,11,24,18,01,17.10
2011,11,24,18,02,17.50